QPF
0.00 0.00 0.00 0.01 0.01 0.01 0.01 0.01 0.01 0.00 0.00 0.01 0.01 0.02 0.02 0.02 0.02 0.01 0.01 0.02 0.03 0.03 0.03 0.03 0.02 0.02 0.03 0.05 0.05 0.05 0.05 0.03 0.02 0.03 0.04 0.04 0.04 0.04 0.03 0.02 0.01 0.01 0.01
0.00 0.00 0.00 0.01 0.01 0.01 0.01 0.01 0.01 0.01 0.01 0.01 0.00 0.01 0.01 0.01 0.01 0.01 0.01 0.02 0.02 0.02 0.02 0.02 0.02 0.01 0.01 0.03 0.04 0.03 0.04 0.04 0.03 0.03 0.03 0.04 0.04 0.03 0.02 0.02 0.02 0.01 0.01
0.00 0.00 0.00 0.00 0.00 0.00 0.01 0.01 0.01 0.01 0.01 0.01 0.01 0.01 0.01 0.02 0.02 0.01 0.01 0.01 0.02 0.02 0.02 0.01 0.01 0.01 0.01 0.01 0.02 0.03 0.03 0.03 0.03 0.03 0.03 0.04 0.04 0.03 0.02 0.01 0.01 0.01 0.01
0.00 0.00 0.00 0.00 0.00 0.00 0.01 0.01 0.01 0.01 0.01 0.01 0.01 0.01 0.01 0.01 0.01 0.01 0.01 0.01 0.02 0.02 0.02 0.02 0.01 0.01 0.01 0.01 0.01 0.02 0.03 0.03 0.03 0.03 0.03 0.03 0.03 0.02 0.02 0.02 0.01 0.01 0.01
0.01 0.01 0.00 0.00 0.01 0.00 0.00 0.00 0.00 0.00 0.00 0.00 0.01 0.01 0.01 0.01 0.00 0.01 0.01 0.01 0.01 0.02 0.02 0.02 0.02 0.01 0.01 0.01 0.01 0.01 0.03 0.03 0.03 0.03 0.03 0.03 0.03 0.02 0.02 0.02 0.02 0.01 0.01
0.00 0.01 0.00 0.01 0.01 0.01 0.01 0.00 0.00 0.00 0.00 0.00 0.00 0.01 0.01 0.01 0.01 0.01 0.01 0.01 0.01 0.01 0.02 0.02 0.02 0.01 0.01 0.01 0.01 0.01 0.02 0.04 0.03 0.03 0.03 0.03 0.03 0.02 0.02 0.02 0.02 0.02 0.02
0.00 0.01 0.00 0.00 0.00 0.01 0.01 0.00 0.00 0.00 0.00 0.00 0.00 0.01 0.01 0.01 0.00 0.00 0.01 0.01 0.01 0.01 0.01 0.02 0.02 0.02 0.01 0.01 0.01 0.01 0.01 0.02 0.04 0.03 0.02 0.02 0.02 0.02 0.02 0.02 0.03 0.02 0.02
0.00 0.01 0.01 0.01 0.01 0.01 0.01 0.01 0.01 0.00 0.00 0.00 0.00 0.00 0.01 0.01 0.01 0.01 0.01 0.01 0.01 0.01 0.01 0.01 0.02 0.02 0.02 0.02 0.02 0.01 0.01 0.01 0.02 0.03 0.03 0.03 0.02 0.02 0.02 0.02 0.03 0.03 0.02
0.01 0.01 0.01 0.01 0.01 0.01 0.01 0.01 0.01 0.01 0.01 0.00 0.00 0.01 0.01 0.01 0.01 0.01 0.01 0.01 0.01 0.01 0.01 0.01 0.01 0.02 0.02 0.02 0.02 0.02 0.02 0.02 0.02 0.03 0.04 0.04 0.03 0.03 0.02 0.02 0.02 0.03 0.03
0.03 0.03 0.02 0.02 0.01 0.01 0.01 0.01 0.02 0.01 0.01 0.01 0.01 0.01 0.01 0.01 0.01 0.01 0.01 0.01 0.00 0.01 0.01 0.01 0.01 0.01 0.02 0.03 0.03 0.02 0.02 0.02 0.03 0.03 0.03 0.04 0.04 0.04 0.04 0.03 0.03 0.03 0.03
0.01 0.01 0.01 0.01 0.01 0.01 0.01 0.01 0.01 0.01 0.01 0.01 0.01 0.01 0.02 0.02 0.01 0.01 0.01 0.01 0.01 0.01 0.01 0.01 0.01 0.01 0.01 0.02 0.02 0.02 0.02 0.02 0.03 0.03 0.03 0.04 0.05 0.05 0.06 0.05 0.04 0.03 0.03
0.00 0.00 0.00 0.01 0.01 0.01 0.01 0.01 0.01 0.01 0.02 0.01 0.01 0.01 0.02 0.02 0.03 0.02 0.01 0.01 0.01 0.01 0.01 0.02 0.02 0.02 0.02 0.02 0.03 0.03 0.03 0.03 0.03 0.03 0.03 0.04 0.05 0.06 0.06 0.06 0.05 0.04 0.04
0.00 0.00 0.01 0.01 0.01 0.01 0.01 0.01 0.01 0.02 0.03 0.03 0.02 0.01 0.02 0.02 0.03 0.02 0.02 0.01 0.01 0.01 0.01 0.01 0.02 0.02 0.02 0.03 0.03 0.03 0.03 0.02 0.02 0.02 0.02 0.02 0.03 0.03 0.04 0.04 0.04 0.04 0.04
0.00 0.00 0.00 0.00 0.01 0.01 0.01 0.01 0.02 0.02 0.03 0.04 0.03 0.03 0.03 0.02 0.02 0.02 0.01 0.01 0.01 0.01 0.01 0.02 0.02 0.02 0.02 0.02 0.02 0.03 0.02 0.02 0.02 0.02 0.02 0.02 0.02 0.02 0.02 0.02 0.03 0.04 0.04
0.01 0.01 0.00 0.00 0.01 0.01 0.01 0.01 0.02 0.02 0.02 0.03 0.03 0.03 0.04 0.03 0.03 0.02 0.02 0.02 0.01 0.01 0.01 0.02 0.02 0.02 0.02 0.02 0.02 0.02 0.03 0.03 0.03 0.02 0.02 0.02 0.02 0.02 0.02 0.02 0.02 0.02 0.03
0.01 0.01 0.00 0.00 0.01 0.01 0.01 0.01 0.02 0.02 0.03 0.03 0.02 0.03 0.04 0.04 0.03 0.02 0.02 0.03 0.03 0.02 0.02 0.02 0.02 0.02 0.02 0.03 0.03 0.02 0.02 0.02 0.02 0.02 0.02 0.02 0.02 0.02 0.02 0.01 0.01 0.01 0.02
0.01 0.00 0.00 0.01 0.01 0.01 0.01 0.01 0.02 0.02 0.03 0.03 0.03 0.03 0.04 0.04 0.04 0.03 0.03 0.03 0.04 0.03 0.02 0.02 0.02 0.02 0.02 0.03 0.03 0.02 0.02 0.02 0.02 0.02 0.02 0.02 0.02 0.03 0.02 0.01 0.01 0.01 0.01
0.01 0.00 0.00 0.01 0.01 0.01 0.01 0.01 0.02 0.02 0.03 0.03 0.03 0.04 0.04 0.05 0.06 0.05 0.05 0.05 0.04 0.03 0.03 0.02 0.02 0.02 0.03 0.03 0.02 0.02 0.02 0.02 0.01 0.01 0.01 0.02 0.02 0.03 0.02 0.02 0.01 0.01 0.01
0.00 0.00 0.00 0.00 0.01 0.01 0.01 0.02 0.02 0.02 0.02 0.03 0.03 0.04 0.04 0.05 0.05 0.06 0.05 0.05 0.04 0.03 0.03 0.03 0.02 0.02 0.02 0.02 0.02 0.02 0.01 0.01 0.01 0.01 0.01 0.01 0.01 0.02 0.03 0.02 0.02 0.01 0.01
0.01 0.00 0.00 0.01 0.01 0.01 0.01 0.02 0.02 0.02 0.02 0.02 0.03 0.03 0.04 0.04 0.05 0.06 0.06 0.05 0.04 0.03 0.03 0.03 0.03 0.02 0.02 0.02 0.02 0.02 0.01 0.01 0.01 0.00 0.00 0.01 0.01 0.02 0.02 0.02 0.02 0.02 0.01
0.01 0.01 0.01 0.01 0.01 0.01 0.01 0.01 0.01 0.01 0.01 0.02 0.02 0.02 0.03 0.03 0.04 0.05 0.06 0.05 0.05 0.04 0.04 0.04 0.03 0.03 0.02 0.02 0.02 0.02 0.01 0.01 0.01 0.01 0.01 0.01 0.01 0.01 0.01 0.01 0.02 0.02 0.02
0.01 0.01 0.01 0.01 0.01 0.01 0.01 0.01 0.01 0.01 0.01 0.01 0.02 0.02 0.02 0.02 0.03 0.03 0.04 0.05 0.04 0.04 0.04 0.03 0.03 0.03 0.03 0.02 0.02 0.02 0.01 0.01 0.01 0.01 0.01 0.01 0.02 0.02 0.01 0.01 0.01 0.01 0.02
0.02 0.02 0.02 0.02 0.01 0.01 0.01 0.01 0.01 0.01 0.01 0.01 0.01 0.01 0.01 0.02 0.02 0.02 0.03 0.03 0.03 0.03 0.03 0.02 0.02 0.02 0.02 0.02 0.02 0.02 0.02 0.01 0.01 0.01 0.01 0.01 0.01 0.01 0.01 0.01 0.01 0.01 0.01
0.02 0.02 0.02 0.01 0.01 0.00 0.00 0.01 0.01 0.01 0.01 0.01 0.01 0.01 0.01 0.01 0.02 0.02 0.02 0.02 0.02 0.02 0.02 0.02 0.02 0.02 0.02 0.02 0.02 0.02 0.02 0.01 0.01 0.01 0.01 0.01 0.01 0.01 0.01 0.01 0.01 0.01 0.01
0.01 0.01 0.01 0.00 0.00 0.00 0.00 0.01 0.01 0.01 0.01 0.01 0.01 0.02 0.02 0.01 0.01 0.01 0.01 0.02 0.02 0.02 0.02 0.02 0.02 0.02 0.02 0.02 0.02 0.02 0.02 0.01 0.01 0.01 0.01 0.01 0.01 0.01 0.01 0.01 0.01 0.01 0.01
0.00 0.00 0.00 0.00 0.00 0.01 0.01 0.01 0.01 0.02 0.02 0.02 0.01 0.02 0.03 0.03 0.02 0.02 0.02 0.02 0.02 0.02 0.02 0.01 0.02 0.02 0.02 0.02 0.02 0.02 0.01 0.01 0.02 0.02 0.02 0.01 0.01 0.02 0.01 0.01 0.01 0.01 0.01
MSLP
1021.39 1021.06 1020.68 1020.28 1019.88 1019.52 1019.18 1018.86 1018.52 1018.11 1017.59 1016.91 1016.07 1015.07 1013.95 1012.77 1011.61 1010.54 1009.64 1008.97 1008.57 1008.46 1008.64 1009.08 1009.76 1010.60 1011.56 1012.58 1013.59 1014.53 1015.37 1016.07 1016.63 1017.07 1017.40 1017.68 1017.92 1018.17 1018.45 1018.76 1019.08 1019.41 1019.72
1021.04 1020.75 1020.39 1020.00 1019.60 1019.22 1018.88 1018.57 1018.25 1017.87 1017.39 1016.77 1015.97 1015.00 1013.88 1012.67 1011.44 1010.29 1009.28 1008.50 1007.99 1007.78 1007.88 1008.28 1008.93 1009.78 1010.76 1011.80 1012.83 1013.80 1014.65 1015.36 1015.94 1016.39 1016.74 1017.04 1017.33 1017.62 1017.95 1018.31 1018.68 1019.05 1019.38
1020.76 1020.51 1020.17 1019.77 1019.34 1018.93 1018.55 1018.21 1017.87 1017.51 1017.06 1016.48 1015.73 1014.79 1013.70 1012.49 1011.24 1010.02 1008.93 1008.05 1007.43 1007.13 1007.14 1007.48 1008.09 1008.91 1009.87 1010.91 1011.95 1012.92 1013.78 1014.51 1015.09 1015.56 1015.95 1016.28 1016.62 1016.97 1017.36 1017.78 1018.22 1018.64 1019.02
1020.52 1020.33 1020.01 1019.59 1019.12 1018.65 1018.20 1017.79 1017.42 1017.04 1016.60 1016.04 1015.34 1014.46 1013.42 1012.24 1010.99 1009.75 1008.62 1007.66 1006.96 1006.56 1006.48 1006.73 1007.26 1008.02 1008.94 1009.95 1010.97 1011.94 1012.80 1013.54 1014.14 1014.64 1015.06 1015.44 1015.82 1016.23 1016.69 1017.18 1017.70 1018.21 1018.68
1020.29 1020.16 1019.87 1019.44 1018.92 1018.36 1017.83 1017.34 1016.89 1016.47 1016.02 1015.49 1014.84 1014.03 1013.05 1011.93 1010.73 1009.51 1008.35 1007.36 1006.59 1006.09 1005.91 1006.06 1006.49 1007.16 1008.01 1008.96 1009.95 1010.89 1011.76 1012.50 1013.13 1013.66 1014.11 1014.54 1014.97 1015.44 1015.96 1016.54 1017.15 1017.77 1018.35
1020.00 1019.95 1019.69 1019.24 1018.67 1018.05 1017.42 1016.83 1016.31 1015.83 1015.37 1014.85 1014.25 1013.51 1012.62 1011.59 1010.46 1009.29 1008.15 1007.14 1006.31 1005.74 1005.46 1005.48 1005.79 1006.35 1007.11 1007.98 1008.91 1009.84 1010.69 1011.45 1012.11 1012.67 1013.16 1013.62 1014.09 1014.62 1015.21 1015.87 1016.58 1017.33 1018.06
1019.61 1019.63 1019.40 1018.96 1018.36 1017.66 1016.95 1016.28 1015.68 1015.15 1014.66 1014.16 1013.60 1012.93 1012.14 1011.21 1010.18 1009.08 1007.99 1006.98 1006.12 1005.48 1005.09 1004.99 1005.17 1005.61 1006.24 1007.03 1007.91 1008.79 1009.65 1010.42 1011.10 1011.69 1012.22 1012.71 1013.23 1013.79 1014.44 1015.18 1016.00 1016.88 1017.78
1019.10 1019.18 1018.99 1018.55 1017.93 1017.19 1016.42 1015.68 1015.01 1014.43 1013.92 1013.43 1012.91 1012.32 1011.62 1010.80 1009.87 1008.86 1007.83 1006.85 1005.97 1005.26 1004.78 1004.56 1004.60 1004.90 1005.43 1006.12 1006.93 1007.79 1008.64 1009.43 1010.14 1010.77 1011.33 1011.85 1012.39 1012.99 1013.68 1014.49 1015.41 1016.42 1017.48
1018.48 1018.59 1018.43 1018.01 1017.38 1016.62 1015.82 1015.04 1014.33 1013.71 1013.18 1012.69 1012.20 1011.67 1011.05 1010.33 1009.49 1008.58 1007.62 1006.67 1005.79 1005.03 1004.47 1004.14 1004.06 1004.23 1004.64 1005.25 1006.00 1006.83 1007.68 1008.50 1009.25 1009.91 1010.51 1011.06 1011.61 1012.23 1012.95 1013.80 1014.80 1015.93 1017.13
1017.78 1017.90 1017.76 1017.35 1016.74 1015.99 1015.18 1014.38 1013.65 1013.01 1012.45 1011.95 1011.48 1010.98 1010.42 1009.77 1009.03 1008.19 1007.30 1006.39 1005.52 1004.74 1004.11 1003.68 1003.50 1003.56 1003.87 1004.40 1005.11 1005.92 1006.79 1007.64 1008.43 1009.14 1009.77 1010.34 1010.91 1011.53 1012.26 1013.13 1014.18 1015.38 1016.70
1017.07 1017.17 1017.02 1016.63 1016.04 1015.32 1014.52 1013.74 1013.00 1012.34 1011.76 1011.24 1010.75 1010.26 1009.73 1009.13 1008.44 1007.68 1006.85 1005.98 1005.13 1004.34 1003.67 1003.18 1002.91 1002.88 1003.11 1003.59 1004.26 1005.07 1005.95 1006.85 1007.69 1008.45 1009.11 1009.71 1010.29 1010.90 1011.61 1012.48 1013.54 1014.78 1016.16
1016.40 1016.46 1016.29 1015.91 1015.35 1014.66 1013.90 1013.13 1012.39 1011.72 1011.11 1010.55 1010.03 1009.52 1008.98 1008.39 1007.75 1007.03 1006.25 1005.43 1004.60 1003.82 1003.13 1002.60 1002.27 1002.19 1002.36 1002.79 1003.43 1004.25 1005.16 1006.10 1007.00 1007.81 1008.53 1009.15 1009.74 1010.33 1011.02 1011.86 1012.88 1014.11 1015.51
1015.81 1015.80 1015.61 1015.23 1014.69 1014.04 1013.32 1012.58 1011.85 1011.15 1010.50 1009.89 1009.32 1008.75 1008.18 1007.58 1006.94 1006.26 1005.52 1004.75 1003.96 1003.20 1002.52 1001.97 1001.61 1001.47 1001.60 1001.99 1002.62 1003.44 1004.38 1005.36 1006.32 1007.20 1007.97 1008.63 1009.23 1009.82 1010.47 1011.26 1012.23 1013.40 1014.76
1015.30 1015.23 1014.99 1014.61 1014.09 1013.47 1012.79 1012.07 1011.34 1010.63 1009.93 1009.25 1008.60 1007.97 1007.34 1006.71 1006.07 1005.40 1004.70 1003.98 1003.23 1002.51 1001.85 1001.30 1000.91 1000.75 1000.83 1001.19 1001.80 1002.61 1003.57 1004.60 1005.62 1006.56 1007.39 1008.10 1008.73 1009.32 1009.95 1010.69 1011.59 1012.69 1013.97
1014.86 1014.71 1014.44 1014.04 1013.53 1012.94 1012.28 1011.58 1010.85 1010.10 1009.35 1008.61 1007.87 1007.16 1006.47 1005.80 1005.15 1004.49 1003.83 1003.15 1002.46 1001.78 1001.14 1000.59 1000.20 1000.00 1000.05 1000.37 1000.94 1001.74 1002.71 1003.77 1004.84 1005.85 1006.75 1007.54 1008.21 1008.83 1009.45 1010.15 1010.99 1012.01 1013.21
1014.46 1014.24 1013.91 1013.49 1012.99 1012.40 1011.76 1011.07 1010.32 1009.54 1008.74 1007.92 1007.11 1006.32 1005.57 1004.86 1004.19 1003.54 1002.91 1002.28 1001.64 1001.01 1000.40 999.87 999.47 999.24 999.24 999.51 1000.04 1000.81 1001.77 1002.85 1003.97 1005.05 1006.04 1006.91 1007.67 1008.34 1008.99 1009.69 1010.49 1011.44 1012.55
1014.07 1013.78 1013.40 1012.94 1012.41 1011.83 1011.18 1010.48 1009.71 1008.89 1008.03 1007.15 1006.27 1005.41 1004.60 1003.86 1003.17 1002.54 1001.95 1001.36 1000.78 1000.19 999.63 999.11 998.70 998.44 998.40 998.61 999.08 999.81 1000.76 1001.86 1003.02 1004.18 1005.26 1006.24 1007.11 1007.88 1008.60 1009.33 1010.13 1011.04 1012.08
1013.67 1013.31 1012.86 1012.35 1011.79 1011.17 1010.51 1009.78 1008.98 1008.11 1007.19 1006.24 1005.29 1004.38 1003.52 1002.75 1002.06 1001.44 1000.88 1000.35 999.83 999.30 998.77 998.28 997.87 997.59 997.51 997.67 998.10 998.79 999.72 1000.83 1002.04 1003.28 1004.48 1005.59 1006.59 1007.49 1008.31 1009.12 1009.96 1010.87 1011.88
1013.27 1012.82 1012.29 1011.71 1011.09 1010.43 1009.72 1008.94 1008.09 1007.16 1006.18 1005.16 1004.15 1003.17 1002.27 1001.47 1000.77 1000.18 999.65 999.17 998.71 998.25 997.78 997.33 996.95 996.68 996.59 996.73 997.13 997.80 998.72 999.85 1001.12 1002.44 1003.76 1005.02 1006.17 1007.22 1008.19 1009.11 1010.02 1010.97 1011.98
1012.86 1012.31 1011.71 1011.05 1010.35 1009.61 1008.83 1007.98 1007.05 1006.05 1004.98 1003.88 1002.79 1001.75 1000.79 999.96 999.25 998.67 998.18 997.76 997.37 996.99 996.60 996.23 995.91 995.70 995.64 995.79 996.20 996.88 997.83 999.00 1000.34 1001.76 1003.21 1004.61 1005.93 1007.14 1008.26 1009.31 1010.31 1011.33 1012.37
1012.46 1011.82 1011.12 1010.37 1009.58 1008.75 1007.87 1006.92 1005.89 1004.78 1003.61 1002.41 1001.22 1000.09 999.07 998.18 997.45 996.87 996.42 996.06 995.75 995.47 995.21 994.96 994.75 994.64 994.67 994.90 995.38 996.11 997.12 998.36 999.77 1001.30 1002.87 1004.42 1005.89 1007.27 1008.54 1009.71 1010.83 1011.91 1012.99
1012.08 1011.35 1010.55 1009.71 1008.81 1007.87 1006.87 1005.80 1004.64 1003.40 1002.09 1000.76 999.45 998.21 997.09 996.14 995.37 994.78 994.35 994.06 993.85 993.70 993.59 993.50 993.47 993.52 993.71 994.07 994.67 995.51 996.62 997.95 999.47 1001.10 1002.79 1004.46 1006.07 1007.59 1008.99 1010.28 1011.48 1012.63 1013.75
1011.71 1010.90 1010.02 1009.07 1008.07 1007.02 1005.89 1004.67 1003.36 1001.95 1000.49 999.00 997.53 996.16 994.92 993.88 993.05 992.45 992.05 991.82 991.73 991.73 991.79 991.92 992.11 992.38 992.77 993.34 994.11 995.10 996.33 997.78 999.40 1001.14 1002.92 1004.71 1006.43 1008.05 1009.54 1010.92 1012.20 1013.39 1014.53
1011.33 1010.46 1009.51 1008.48 1007.38 1006.20 1004.94 1003.57 1002.09 1000.51 998.87 997.20 995.57 994.03 992.67 991.52 990.62 989.99 989.62 989.46 989.49 989.66 989.93 990.30 990.74 991.27 991.92 992.71 993.69 994.86 996.24 997.81 999.53 1001.35 1003.22 1005.07 1006.87 1008.56 1010.12 1011.55 1012.87 1014.09 1015.24
1010.92 1010.01 1009.00 1007.90 1006.71 1005.43 1004.03 1002.52 1000.87 999.13 997.30 995.46 993.65 991.97 990.47 989.22 988.26 987.60 987.25 987.17 987.32 987.67 988.16 988.77 989.48 990.28 991.19 992.23 993.42 994.77 996.29 997.97 999.78 1001.66 1003.58 1005.47 1007.31 1009.03 1010.62 1012.08 1013.42 1014.65 1015.79
1010.45 1009.52 1008.47 1007.32 1006.07 1004.70 1003.19 1001.55 999.76 997.86 995.88 993.88 991.93 990.12 988.50 987.17 986.16 985.49 985.17 985.17 985.45 985.96 986.66 987.51 988.47 989.52 990.67 991.94 993.31 994.82 996.46 998.22 1000.08 1001.99 1003.92 1005.83 1007.66 1009.39 1010.98 1012.44 1013.78 1015.00 1016.14
Thickness
5591 5587 5584 5582 5580 5578 5578 5577 5575 5574 5572 5571 5571 5570 5570 5569 5569 5569 5570 5570 5571 5571 5572 5572 5571 5571 5571 5571 5571 5570 5570 5569 5569 5571 5573 5574 5573 5573 5573 5573 5573 5572 5572
5582 5579 5576 5573 5572 5570 5568 5567 5565 5564 5563 5562 5561 5560 5559 5559 5559 5559 5560 5561 5562 5562 5563 5563 5563 5562 5562 5562 5562 5561 5561 5560 5560 5562 5565 5569 5569 5566 5565 5565 5564 5564 5563
5575 5572 5568 5565 5563 5562 5560 5558 5556 5555 5554 5552 5551 5549 5549 5549 5550 5551 5552 5552 5553 5553 5554 5554 5554 5554 5554 5554 5554 5553 5553 5553 5551 5552 5555 5559 5563 5561 5558 5556 5555 5554 5554
5566 5564 5560 5557 5555 5553 5551 5550 5548 5546 5545 5544 5543 5543 5544 5543 5543 5542 5543 5543 5544 5544 5544 5545 5545 5545 5546 5546 5545 5544 5544 5544 5544 5543 5542 5544 5547 5548 5551 5549 5546 5545 5545
5557 5554 5551 5549 5547 5544 5542 5541 5540 5538 5537 5535 5535 5535 5535 5535 5534 5533 5534 5534 5534 5535 5535 5536 5536 5536 5537 5537 5536 5536 5535 5536 5536 5535 5534 5534 5534 5536 5538 5542 5540 5537 5535
5547 5545 5542 5540 5538 5535 5533 5532 5531 5530 5528 5527 5527 5527 5526 5526 5526 5525 5525 5525 5525 5525 5526 5527 5527 5528 5528 5527 5528 5527 5527 5527 5527 5527 5526 5527 5527 5528 5528 5530 5530 5529 5527
5539 5536 5534 5532 5530 5528 5525 5524 5523 5522 5521 5519 5519 5519 5518 5517 5518 5518 5517 5517 5517 5517 5518 5518 5518 5518 5518 5518 5518 5518 5518 5518 5518 5518 5518 5518 5518 5518 5517 5517 5517 5516 5516
5530 5528 5526 5524 5522 5520 5518 5517 5516 5515 5513 5512 5511 5510 5509 5508 5509 5509 5509 5509 5509 5509 5509 5509 5509 5509 5509 5509 5509 5509 5509 5509 5509 5509 5509 5509 5508 5507 5507 5506 5504 5504 5506
5519 5517 5516 5515 5513 5511 5509 5509 5508 5507 5505 5504 5504 5503 5502 5501 5500 5500 5499 5499 5499 5499 5499 5499 5500 5500 5499 5499 5499 5500 5500 5499 5499 5499 5499 5499 5498 5497 5496 5495 5494 5492 5494
5510 5508 5506 5505 5504 5502 5501 5500 5499 5499 5498 5496 5496 5495 5494 5493 5492 5491 5491 5490 5490 5489 5490 5490 5490 5490 5490 5490 5490 5490 5491 5491 5490 5490 5490 5489 5489 5487 5486 5485 5484 5482 5481
5501 5499 5497 5495 5493 5492 5491 5491 5490 5489 5488 5488 5487 5486 5486 5484 5483 5482 5482 5482 5481 5481 5481 5481 5481 5481 5481 5481 5481 5481 5481 5482 5482 5481 5481 5480 5479 5478 5477 5476 5474 5472 5470
5490 5488 5487 5486 5484 5483 5482 5482 5481 5481 5480 5479 5478 5478 5477 5476 5475 5474 5474 5474 5473 5472 5472 5472 5473 5472 5472 5472 5472 5472 5473 5473 5473 5473 5472 5471 5469 5469 5468 5466 5465 5463 5461
5481 5479 5477 5477 5475 5474 5473 5472 5472 5471 5470 5470 5469 5469 5468 5468 5467 5467 5466 5465 5464 5464 5463 5463 5464 5464 5464 5464 5464 5464 5464 5465 5465 5464 5463 5462 5461 5460 5459 5457 5455 5453 5451
5471 5470 5468 5467 5465 5465 5464 5463 5463 5462 5461 5461 5461 5461 5461 5460 5460 5459 5458 5458 5457 5456 5456 5456 5456 5456 5456 5457 5457 5457 5457 5457 5456 5455 5455 5454 5453 5451 5450 5448 5446 5444 5441
5463 5461 5459 5458 5457 5456 5455 5454 5454 5453 5453 5453 5452 5452 5452 5451 5451 5451 5451 5450 5449 5449 5449 5449 5449 5448 5449 5450 5450 5450 5450 5449 5448 5448 5446 5445 5443 5442 5440 5438 5436 5434 5431
5454 5452 5450 5449 5448 5447 5447 5446 5446 5445 5445 5445 5444 5444 5444 5444 5444 5444 5443 5442 5442 5442 5442 5442 5442 5442 5442 5442 5442 5442 5442 5442 5441 5440 5439 5437 5435 5433 5431 5428 5426 5424 5422
5444 5443 5442 5440 5439 5438 5438 5438 5437 5437 5437 5437 5437 5436 5436 5437 5437 5436 5435 5435 5435 5435 5435 5435 5435 5435 5436 5435 5434 5434 5434 5434 5433 5432 5430 5429 5427 5424 5422 5420 5417 5415 5412
5435 5434 5432 5431 5430 5429 5428 5429 5428 5429 5429 5428 5428 5428 5428 5428 5428 5428 5428 5428 5428 5428 5427 5427 5428 5428 5428 5427 5427 5426 5426 5426 5425 5424 5422 5420 5419 5416 5413 5411 5409 5407 5405
5426 5425 5423 5422 5421 5420 5420 5420 5420 5420 5420 5420 5420 5420 5420 5420 5421 5421 5420 5420 5420 5420 5419 5420 5420 5420 5420 5420 5419 5419 5419 5418 5416 5415 5413 5411 5410 5408 5404 5403 5401 5399 5397
5416 5414 5413 5412 5412 5412 5411 5412 5412 5412 5412 5412 5411 5411 5412 5413 5413 5413 5412 5411 5411 5412 5412 5411 5411 5412 5412 5412 5411 5411 5411 5410 5409 5407 5405 5402 5401 5399 5397 5395 5393 5392 5390
5404 5403 5403 5403 5403 5402 5403 5403 5404 5404 5404 5403 5404 5404 5404 5405 5405 5405 5404 5404 5403 5404 5403 5403 5403 5403 5404 5403 5403 5402 5402 5401 5400 5398 5396 5395 5393 5391 5389 5388 5386 5384 5381
5393 5393 5392 5393 5393 5393 5394 5395 5396 5395 5395 5395 5396 5397 5397 5397 5397 5397 5396 5396 5395 5396 5395 5395 5396 5395 5395 5395 5395 5394 5393 5392 5391 5390 5388 5386 5384 5383 5381 5379 5377 5375 5372
5384 5383 5382 5382 5383 5383 5385 5386 5387 5386 5387 5388 5388 5389 5389 5389 5389 5390 5389 5388 5388 5388 5388 5388 5388 5387 5387 5387 5386 5386 5384 5383 5382 5381 5379 5377 5375 5373 5372 5370 5369 5366 5365
5373 5373 5373 5373 5374 5375 5376 5376 5377 5377 5378 5379 5380 5381 5381 5382 5382 5382 5382 5381 5381 5382 5382 5381 5381 5380 5380 5380 5379 5378 5376 5375 5373 5371 5370 5368 5366 5364 5363 5362 5360 5358 5357
5364 5364 5364 5365 5366 5366 5367 5368 5368 5369 5370 5371 5372 5373 5374 5375 5374 5374 5374 5374 5374 5375 5375 5375 5374 5373 5373 5373 5371 5369 5368 5367 5365 5363 5361 5360 5358 5357 5355 5354 5352 5350 5349
5357 5356 5357 5357 5358 5358 5359 5360 5361 5361 5362 5363 5364 5365 5366 5367 5367 5367 5366 5365 5365 5366 5366 5366 5365 5365 5365 5364 5362 5361 5360 5359 5356 5355 5353 5352 5351 5349 5347 5346 5344 5342 5341